| time (UTC) | temp C | wind direction | speed KPH | gust KPH | rain 1hr cm | rain 24hr cm | rain mn cm | humidity % | barometer mb |
| 20260510033913 | 22 | 132 | 1.6 | 9.7 | 0.00 | 0.00 | 0.00 | 82 | 1008.9 |
| 20260510032923 | 22 | 115 | 1.6 | 8.0 | 0.00 | 0.00 | 0.00 | 81 | 1008.8 |
| 20260510031927 | 22 | 101 | 3.2 | 11.3 | 0.00 | 0.00 | 0.00 | 81 | 1008.8 |
| 20260510030915 | 22 | 109 | 3.2 | 11.3 | 0.00 | 0.05 | 0.00 | 80 | 1008.7 |
| 20260510025905 | 22 | 107 | 1.6 | 8.0 | 0.00 | 1.17 | 0.00 | 79 | 1008.7 |
| 20260510024852 | 22 | 95 | 0.0 | 0.0 | 0.00 | 1.17 | 0.00 | 77 | 1008.9 |
| 20260510023839 | 23 | 86 | 0.0 | 0.0 | 0.00 | 1.17 | 0.00 | 76 | 1008.9 |
| 20260510021707 | 23 | 83 | 0.0 | 0.0 | 0.00 | 1.17 | 0.00 | 76 | 1008.6 |
| 20260510020725 | 23 | 81 | 0.0 | 0.0 | 0.00 | 1.17 | 0.00 | 75 | 1008.6 |
| 20260510015706 | 23 | 88 | 0.0 | 0.0 | 0.00 | 1.17 | 0.00 | 75 | 1008.6 |
| 20260510014638 | 24 | 86 | 0.0 | 0.0 | 0.00 | 1.17 | 0.00 | 74 | 1008.4 |
| 20260510013637 | 24 | 82 | 0.0 | 0.0 | 0.00 | 1.17 | 0.00 | 73 | 1008.4 |
| 20260510012647 | 25 | 85 | 0.0 | 4.8 | 0.00 | 1.17 | 0.00 | 72 | 1008.2 |
| 20260510011634 | 25 | 65 | 0.0 | 0.0 | 0.00 | 1.17 | 0.00 | 71 | 1008.1 |
| 20260510010622 | 26 | 89 | 0.0 | 0.0 | 0.00 | 1.17 | 0.00 | 69 | 1008.0 |
| 20260510005638 | 26 | 90 | 0.0 | 0.0 | 0.00 | 1.17 | 0.00 | 68 | 1007.9 |
| 20260510004626 | 26 | 92 | 0.0 | 1.6 | 0.00 | 1.17 | 0.00 | 66 | 1007.7 |
| 20260510003552 | 27 | 109 | 0.0 | 0.0 | 0.00 | 1.17 | 0.00 | 66 | 1007.7 |
| 20260510002603 | 27 | 126 | 3.2 | 12.9 | 0.00 | 1.17 | 0.00 | 64 | 1007.6 |
| 20260510001626 | 27 | 132 | 1.6 | 9.7 | 0.00 | 1.17 | 0.00 | 65 | 1007.6 |
| 20260510000611 | 27 | 92 | 3.2 | 9.7 | 0.00 | 1.17 | 0.00 | 63 | 1007.7 |
| 20260509235622 | 28 | 94 | 1.6 | 8.0 | 0.00 | 1.17 | 0.00 | 62 | 1007.9 |
| 20260509234553 | 28 | 84 | 1.6 | 9.7 | 0.00 | 1.17 | 0.00 | 60 | 1008.0 |
| 20260509233528 | 28 | 84 | 1.6 | 8.0 | 0.00 | 1.17 | 0.00 | 62 | 1008.0 |
| 20260509232517 | 28 | 83 | 0.0 | 3.2 | 0.00 | 1.17 | 0.00 | 62 | 1007.9 |
| 20260509230355 | 28 | 87 | 1.6 | 12.9 | 0.00 | 1.17 | 0.00 | 61 | 1007.9 |
| 20260509225329 | 28 | 96 | 3.2 | 12.9 | 0.00 | 1.17 | 0.00 | 62 | 1008.0 |
| 20260509215918 | 28 | 103 | 1.6 | 16.1 | 0.00 | 1.17 | 0.00 | 63 | 1007.8 |
| 20260509214920 | 28 | 46 | 4.8 | 14.5 | 0.00 | 1.17 | 0.00 | 63 | 1007.9 |
| 20260509213937 | 28 | 100 | 3.2 | 14.5 | 0.00 | 1.17 | 0.00 | 65 | 1007.9 |
| 20260509212938 | 28 | 68 | 3.2 | 16.1 | 0.00 | 1.17 | 0.00 | 66 | 1008.0 |
| 20260509211947 | 28 | 84 | 4.8 | 16.1 | 0.00 | 1.17 | 0.00 | 67 | 1008.2 |
| 20260509210939 | 28 | 92 | 4.8 | 16.1 | 0.00 | 1.17 | 0.00 | 67 | 1008.3 |
| 20260509210003 | 28 | 64 | 4.8 | 14.5 | 0.00 | 1.17 | 0.00 | 70 | 1008.5 |
| 20260509202755 | 27 | 49 | 3.2 | 12.9 | 0.00 | 1.17 | 0.00 | 69 | 1008.8 |
| 20260509201738 | 27 | 26 | 1.6 | 11.3 | 0.00 | 1.17 | 0.00 | 71 | 1008.9 |
| 20260509200710 | 27 | 80 | 0.0 | 11.3 | 0.00 | 1.17 | 0.00 | 71 | 1009.1 |
| 20260509195716 | 27 | 44 | 3.2 | 14.5 | 0.00 | 1.17 | 0.00 | 70 | 1009.2 |
| 20260509194741 | 27 | 57 | 1.6 | 0.0 | 0.00 | 1.17 | 0.00 | 71 | 1009.3 |
| 20260509193710 | 26 | 68 | 3.2 | 12.9 | 0.00 | 1.17 | 0.00 | 73 | 1009.5 |
| 20260509192641 | 26 | 63 | 3.2 | 16.1 | 0.00 | 1.17 | 0.00 | 75 | 1009.5 |
| 20260509185354 | 26 | 14 | 4.8 | 9.7 | 0.00 | 1.17 | 0.00 | 76 | 1009.7 |
| 20260509184401 | 26 | 58 | 4.8 | 16.1 | 0.00 | 1.17 | 0.00 | 77 | 1009.7 |
| 20260509183346 | 26 | 46 | 4.8 | 16.1 | 0.00 | 1.17 | 0.00 | 77 | 1009.9 |
| 20260509181223 | 25 | 27 | 3.2 | 12.9 | 0.00 | 1.17 | 0.00 | 79 | 1010.0 |
| 20260509180236 | 25 | 22 | 3.2 | 12.9 | 0.00 | 1.17 | 0.00 | 76 | 1010.2 |
| 20260509174105 | 25 | 0 | 4.8 | 12.9 | 0.00 | 1.17 | 0.00 | 79 | 1010.2 |
| 20260509173116 | 25 | 5 | 4.8 | 12.9 | 0.00 | 1.17 | 0.00 | 78 | 1010.2 |
| 20260509172128 | 25 | 5 | 1.6 | 14.5 | 0.00 | 1.17 | 0.00 | 78 | 1010.3 |
| 20260509171123 | 25 | 26 | 4.8 | 16.1 | 0.00 | 1.17 | 0.00 | 80 | 1010.4 |
| 20260509170106 | 25 | 0 | 6.4 | 16.1 | 0.00 | 1.17 | 0.00 | 80 | 1010.3 |
| 20260509165056 | 25 | 335 | 6.4 | 14.5 | 0.00 | 1.17 | 0.00 | 81 | 1010.4 |
| 20260509164054 | 24 | 13 | 4.8 | 12.9 | 0.00 | 1.17 | 0.00 | 82 | 1010.5 |
| 20260509163114 | 24 | 332 | 6.4 | 12.9 | 0.00 | 1.17 | 0.00 | 82 | 1010.5 |
| 20260509162041 | 24 | 355 | 3.2 | 16.1 | 0.00 | 1.22 | 0.00 | 82 | 1010.3 |
| 20260509161039 | 24 | 5 | 6.4 | 16.1 | 0.00 | 1.22 | 0.00 | 82 | 1010.2 |
| 20260509160103 | 23 | 329 | 3.2 | 12.9 | 0.00 | 1.22 | 0.00 | 82 | 1010.2 |
| 20260509155051 | 23 | 355 | 4.8 | 12.9 | 0.00 | 1.22 | 0.00 | 84 | 1010.1 |
| 20260509154107 | 23 | 22 | 4.8 | 12.9 | 0.00 | 1.22 | 0.00 | 86 | 1010.0 |
| 20260509153109 | 22 | 5 | 4.8 | 12.9 | 0.00 | 1.22 | 0.00 | 87 | 1010.1 |
| 20260509152059 | 22 | 43 | 3.2 | 9.7 | 0.00 | 1.27 | 0.00 | 88 | 1010.2 |
| 20260509151046 | 22 | 312 | 3.2 | 9.7 | 0.00 | 1.30 | 0.00 | 88 | 1010.2 |
| 20260509150058 | 22 | 355 | 3.2 | 9.7 | 0.00 | 1.30 | 0.00 | 89 | 1010.3 |
| 20260509145050 | 22 | 310 | 0.0 | 3.2 | 0.00 | 1.30 | 0.00 | 90 | 1010.2 |
| 20260509144101 | 22 | 337 | 1.6 | 6.4 | 0.00 | 1.30 | 0.00 | 91 | 1010.2 |
| 20260509143119 | 22 | 9 | 0.0 | 0.0 | 0.00 | 1.30 | 0.00 | 90 | 1010.2 |
| 20260509142056 | 22 | 44 | 0.0 | 0.0 | 0.00 | 1.30 | 0.00 | 91 | 1010.1 |
| 20260509141029 | 22 | 22 | 0.0 | 0.0 | 0.00 | 1.30 | 0.00 | 91 | 1010.2 |
| 20260509140048 | 22 | 111 | 0.0 | 0.0 | 0.00 | 1.30 | 0.00 | 91 | 1010.0 |
| 20260509135102 | 22 | 90 | 0.0 | 0.0 | 0.00 | 1.30 | 0.00 | 91 | 1010.1 |
| 20260509134108 | 22 | 91 | 0.0 | 3.2 | 0.00 | 1.30 | 0.00 | 90 | 1009.9 |
| 20260509133123 | 22 | 72 | 0.0 | 0.0 | 0.00 | 1.30 | 0.00 | 90 | 1009.8 |
| 20260509132100 | 21 | 33 | 0.0 | 0.0 | 0.00 | 1.30 | 0.00 | 89 | 1009.9 |
| 20260509131109 | 21 | 99 | 0.0 | 0.0 | 0.00 | 1.30 | 0.00 | 88 | 1009.8 |
| 20260509130043 | 21 | 100 | 0.0 | 0.0 | 0.00 | 1.30 | 0.00 | 88 | 1009.8 |
| 20260509123956 | 20 | 65 | 0.0 | 0.0 | 0.00 | 1.30 | 0.00 | 89 | 1009.9 |
| 20260509122929 | 20 | 66 | 0.0 | 0.0 | 0.00 | 1.30 | 0.00 | 89 | 1009.9 |
| 20260509121905 | 20 | 84 | 0.0 | 3.2 | 0.00 | 1.30 | 0.00 | 89 | 1009.9 |
| 20260509120833 | 20 | 81 | 0.0 | 0.0 | 0.00 | 1.40 | 0.00 | 90 | 1009.8 |
| 20260509114723 | 20 | 85 | 0.0 | 1.6 | 0.00 | 1.75 | 0.00 | 90 | 1009.8 |
| 20260509113649 | 20 | 57 | 0.0 | 0.0 | 0.00 | 1.75 | 0.00 | 90 | 1009.6 |
| 20260509112628 | 20 | 57 | 0.0 | 3.2 | 0.00 | 1.75 | 0.00 | 90 | 1009.4 |
| 20260509111622 | 19 | 30 | 1.6 | 1.6 | 0.00 | 1.75 | 0.00 | 90 | 1009.2 |
| 20260509110646 | 19 | 36 | 1.6 | 4.8 | 0.00 | 1.75 | 0.00 | 90 | 1009.1 |
| 20260509105702 | 19 | 9 | 0.0 | 3.2 | 0.00 | 1.78 | 0.00 | 90 | 1009.0 |
| 20260509104636 | 19 | 0 | 3.2 | 4.8 | 0.00 | 1.85 | 0.00 | 90 | 1009.0 |
| 20260509103630 | 19 | 31 | 0.0 | 3.2 | 0.00 | 2.24 | 0.00 | 91 | 1008.9 |
| 20260509102621 | 19 | 144 | 0.0 | 0.0 | 0.00 | 2.24 | 0.00 | 91 | 1008.7 |
| 20260509101644 | 19 | 144 | 0.0 | 0.0 | 0.00 | 2.24 | 0.00 | 91 | 1008.5 |
| 20260509095506 | 20 | 144 | 0.0 | 0.0 | 0.00 | 2.24 | 0.00 | 91 | 1008.3 |
| 20260509093429 | 20 | 150 | 6.4 | 16.1 | 0.00 | 2.24 | 0.00 | 91 | 1007.6 |
| 20260509092443 | 20 | 145 | 6.4 | 12.9 | 0.00 | 2.24 | 0.00 | 91 | 1008.0 |
| 20260509091421 | 20 | 146 | 0.0 | 0.0 | 0.00 | 2.24 | 0.00 | 91 | 1008.3 |
| 20260509090434 | 20 | 114 | 0.0 | 9.7 | 0.00 | 2.24 | 0.00 | 90 | 1008.4 |
| 20260509083146 | 20 | 102 | 6.4 | 12.9 | 0.00 | 2.24 | 0.00 | 91 | 1008.5 |
| 20260509082121 | 20 | 101 | 4.8 | 11.3 | 0.00 | 2.24 | 0.00 | 91 | 1008.7 |
| 20260509081117 | 20 | 93 | 3.2 | 11.3 | 0.00 | 2.24 | 0.00 | 91 | 1009.1 |
| 20260509080129 | 20 | 76 | 1.6 | 8.0 | 0.00 | 2.24 | 0.00 | 91 | 1009.3 |
| 20260509075111 | 20 | 89 | 3.2 | 8.0 | 0.00 | 2.24 | 0.00 | 91 | 1009.5 |
| 20260509074038 | 20 | 110 | 1.6 | 4.8 | 0.00 | 2.24 | 0.00 | 91 | 1009.8 |
| 20260509071939 | 20 | 66 | 1.6 | 8.0 | 0.00 | 2.24 | 0.00 | 91 | 1010.1 |
| 20260509070914 | 20 | 5 | 0.0 | 0.0 | 0.00 | 2.24 | 0.00 | 91 | 1010.4 |
| 20260509065857 | 20 | 0 | 0.0 | 0.0 | 0.00 | 2.24 | 0.00 | 91 | 1010.6 |
| 20260509064847 | 20 | 344 | 0.0 | 4.8 | 0.00 | 2.24 | 0.00 | 91 | 1010.6 |
| 20260509063900 | 20 | 35 | 3.2 | 6.4 | 0.00 | 2.24 | 0.00 | 91 | 1010.7 |
| 20260509062901 | 20 | 5 | 1.6 | 8.0 | 0.00 | 2.24 | 0.00 | 91 | 1010.6 |
| 20260509061919 | 20 | 58 | 3.2 | 8.0 | 0.00 | 2.24 | 0.00 | 91 | 1010.1 |
| 20260509060924 | 20 | 69 | 1.6 | 4.8 | 0.00 | 2.24 | 0.00 | 91 | 1009.8 |
| 20260509055910 | 20 | 123 | 0.0 | 4.8 | 0.00 | 2.24 | 0.00 | 91 | 1009.6 |
| 20260509054924 | 20 | 161 | 0.0 | 4.8 | 0.00 | 2.24 | 0.00 | 91 | 1009.9 |
| 20260509053909 | 20 | 169 | 0.0 | 4.8 | 0.00 | 2.24 | 0.00 | 91 | 1010.0 |
| 20260509052910 | 20 | 169 | 0.0 | 1.6 | 0.00 | 2.24 | 0.00 | 91 | 1010.1 |
| 20260509051909 | 20 | 189 | 0.0 | 0.0 | 0.00 | 2.24 | 0.00 | 91 | 1010.2 |